Regional Weather Roundup
Issued by NWS State College, PA

Home | Current Version | Previous Version | Text Only | Print | Product List | Glossary Off
Versions: 1 2 3 4 5 6 7 8 9 10 11 12 13 14 15 16 17 18 19 20 21 22 23 24 25 26 27 28 29 30 31 32 33 34 35 36 37 38 39 40 41 42 43 44 45 46 47 48 49 50

000
ASUS41 KCTP 051603
RWRCTP

REGIONAL WEATHER ROUNDUP
NATIONAL WEATHER SERVICE STATE COLLEGE PA
1200 PM EDT THU MAY 05 2016

Note: "fair" indicates few or no clouds below 12,000 feet with no
significant weather and/or obstructions to visibility.

* = STATION THAT DOES NOT REPORT PRECIPITATION /E.G. RAIN...SNOW...ETC/
    THUNDER OR FOG.

PAZ002>004-007>009-013>016-020>023-029>032-051700-
WESTERN PENNSYLVANIA

CITY           SKY/WX    TMP DP  RH WIND       PRES   REMARKS
ERIE           CLOUDY    52  46  80 NE16G24   29.79S
MEADVILLE      CLOUDY    56  45  66 NE12      29.74S
FRANKLIN*      CLOUDY    55  46  71 CALM      29.75F
NEW CASTLE     CLOUDY    55  50  83 N7        29.75S
BEAVER COUNTY  PTSUNNY   55  48  76 N8        29.73F
BUTLER*        CLOUDY    55  48  76 N6        29.74F
PITTSBURGH INT CLOUDY    57  48  72 N10       29.71S
PITTSBURGH     CLOUDY    56  46  69 VRB6      29.70S
INDIANA*       CLOUDY    57  46  67 NE9G16    29.72F
LATROBE        PTSUNNY   55  50  82 VRB3      29.70F
WASHINGTON CO* CLOUDY    55  46  71 N7        29.72S
$$

PAZ004>006-010>012-017>019-024>028-033>037-041-042-045-046-049>053-051700-
CENTRAL PENNSYLVANIA

CITY           SKY/WX    TMP DP  RH WIND       PRES   REMARKS
BRADFORD       CLOUDY    54  40  59 N10G20    29.74S
DUBOIS         CLOUDY   N/A N/A N/A N13       29.70F
CLEARFIELD     CLOUDY    58  44  60 E10       29.70S
JOHNSTOWN      CLOUDY    51  41  68 E6        29.68S
ALTOONA        CLOUDY    51  44  77 NE6       29.71R
STATE COLLEGE  CLOUDY    54  46  76 NE8       29.71F
WILLIAMSPORT   CLOUDY    57  43  59 N13       29.71F
SELINSGROVE    CLOUDY    54  45  71 NE8       29.72S
FT INDIANTOWN  CLOUDY    54  45  71 NE7       29.69F
CAPITAL CITY   CLOUDY    56  44  64 NE7       29.69F
HARRISBURG     CLOUDY    55  45  68 E7        29.69F
YORK           CLOUDY    51  46  83 E6        29.69F
$$

PAZ038>040-043-044-047-048-054-055-060>062-067>071-051700-
EASTERN PENNSYLVANIA

CITY           SKY/WX    TMP DP  RH WIND       PRES   REMARKS
SCRANTON       CLOUDY    53  43  68 NE10      29.71S
MOUNT POCONO   CLOUDY    45  41  86 NE12      29.70S
ALLENTOWN      CLOUDY    55  44  66 E14       29.70F
QUAKERTOWN*    CLOUDY    52  45  76 NE10G16   29.70F
READING        CLOUDY    54  43  66 NE7       29.69S
LANCASTER      CLOUDY    53  45  74 NE10      29.69F
COATESVILLE    CLOUDY    50  50 100 MISG      29.69F
POTTSTOWN      CLOUDY    52  44  74 N8        29.70F
BLUE BELL      CLOUDY    52  45  76 NE6       29.68F
DOYLESTOWN     CLOUDY    53  45  74 VRB7      29.67F
WILLOW GROVE   NOT AVBL
NORTH PHILA    CLOUDY    54  46  74 NE10      29.69F
PHILADELPHIA   CLOUDY    55  44  66 NE12      29.68F
$$



USA.gov is the U.S. government's official web portal to all federal, state and local government web resources and services.